Weather History for Wadesboro, NC

Change the Weather History Date:

Monday, January 30, 2012

  Actual Average (KCLT) Record (KCLT)
Temperature  
Mean Temperature 43 °F 41 °F  
Max Temperature 60 °F 52 °F 78 °F (2002)
Min Temperature 26 °F 30 °F 4 °F (1966)
Degree Days  
Heating Degree Days 22 24  
Month to date heating degree days 744  
Since 1 July heating degree days 2081  
Cooling Degree Days 0 0  
Month to date cooling degree days 0  
Year to date cooling degree days 0  
Moisture  
Dew Point 21 °F    
Average Humidity 49    
Maximum Humidity 86    
Minimum Humidity 15    
Precipitation  
Precipitation 0.00 in 0.11 in 1.13 in (1960)
Month to date precipitation 3.30  
Year to date precipitation 3.30  
Snow  
Snow 0.00 in 0.00 in 3.90 in (1936)
Month to date snowfall 2.0  
Since 1 July snowfall 2.4  
Snow Depth -    
Sea Level Pressure  
Sea Level Pressure 30.37 in    
Wind  
Wind Speed 2 mph (SW)    
Max Wind Speed 7 mph    
Max Gust Speed -    
Visibility 10 miles    
Events      
T = Trace of Precipitation, MM = Missing Value Source: NWS Daily Summary

Daily Weather History Graph

Daily Weather History Graph

Search for Another Location

Airport:

Trip Planner

Search our weather history database for the weather conditions in past years. The results will help you decide how hot, cold, wet, or windy it might be!

Date:

Astronomy

Jan. 30, 2012 Rise Set
Actual Time 7:20 AM EST 5:46 PM EST
Civil Twilight 6:54 AM EST 6:13 PM EST
Nautical Twilight 6:23 AM EST 6:43 PM EST
Astronomical Twilight 5:53 AM EST 7:13 PM EST
Moon 11:02 AM EST (1/30) 12:10 AM EST (1/30)
Length of Visible Light 11h 19m
Length of Day
10h 25m
Waxing Crescent, 46% of the Moon is Illuminated
Jan 30
Waxing Crescent
Jan 30
First Quarter
Feb 7
Full
Feb 14
Last Quarter
Feb 21
New

Hourly Weather History & Observations

Time (EST) Temp. Windchill Dew Point Humidity Pressure Visibility Wind Dir Wind Speed Gust Speed Precip Events Conditions
12:15 AM 35.6 °F - 19.4 °F 52% 30.30 in 10.0 mi Calm Calm - N/A   Clear
12:35 AM 35.6 °F 32.8 °F 17.6 °F 48% 30.30 in 10.0 mi SSW 3.5 mph - N/A   Clear
12:55 AM 35.6 °F 31.7 °F 19.4 °F 52% 30.30 in 10.0 mi SW 4.6 mph - N/A   Clear
1:15 AM 35.6 °F - 19.4 °F 52% 30.30 in 10.0 mi Calm Calm - N/A   Clear
1:35 AM 35.6 °F 31.7 °F 17.6 °F 48% 30.30 in 10.0 mi SW 4.6 mph - N/A   Clear
1:55 AM 33.8 °F 30.8 °F 21.2 °F 60% 30.31 in 10.0 mi SW 3.5 mph - N/A   Clear
2:15 AM 35.6 °F 32.8 °F 17.6 °F 48% 30.31 in 10.0 mi SW 3.5 mph - N/A   Clear
2:35 AM 32.0 °F - 21.2 °F 64% 30.31 in 10.0 mi Calm Calm - N/A   Clear
2:55 AM 33.8 °F - 19.4 °F 56% 30.31 in 10.0 mi Calm Calm - N/A   Clear
3:15 AM 30.2 °F - 23.0 °F 75% 30.31 in 10.0 mi Calm Calm - N/A   Clear
3:35 AM 32.0 °F - 23.0 °F 69% 30.32 in 10.0 mi Calm Calm - N/A   Clear
3:55 AM 30.2 °F 26.7 °F 23.0 °F 75% 30.32 in 10.0 mi SW 3.5 mph - N/A   Clear
4:15 AM 28.4 °F - 21.2 °F 74% 30.33 in 10.0 mi Calm Calm - N/A   Clear
4:35 AM 32.0 °F - 21.2 °F 64% 30.33 in 10.0 mi Calm Calm - N/A   Clear
4:55 AM 30.2 °F - 21.2 °F 69% 30.34 in 10.0 mi Calm Calm - N/A   Clear
5:15 AM 28.4 °F - 23.0 °F 80% 30.34 in 10.0 mi Calm Calm - N/A   Clear
5:35 AM 30.2 °F 26.7 °F 23.0 °F 75% 30.34 in 10.0 mi SW 3.5 mph - N/A   Clear
5:55 AM 28.4 °F - 23.0 °F 80% 30.35 in 10.0 mi Calm Calm - N/A   Clear
6:15 AM 28.4 °F - 23.0 °F 80% 30.36 in 10.0 mi Calm Calm - N/A   Clear
6:35 AM 26.6 °F - 21.2 °F 80% 30.36 in 10.0 mi Calm Calm - N/A   Clear
6:55 AM 28.4 °F - 23.0 °F 80% 30.37 in 10.0 mi Calm Calm - N/A   Clear
7:15 AM 28.4 °F - 23.0 °F 80% 30.38 in 10.0 mi Calm Calm - N/A   Clear
7:35 AM 26.6 °F - 23.0 °F 86% 30.39 in 10.0 mi Calm Calm - N/A   Clear
7:55 AM 28.4 °F - 23.0 °F 80% 30.41 in 10.0 mi Calm Calm - N/A   Clear
8:15 AM 30.2 °F - 26.6 °F 86% 30.41 in 10.0 mi Calm Calm - N/A   Clear
8:35 AM 32.0 °F - 26.6 °F 80% 30.42 in 10.0 mi Calm Calm - N/A   Clear
8:55 AM 35.6 °F - 28.4 °F 75% 30.43 in 10.0 mi Calm Calm - N/A   Clear
9:15 AM 39.2 °F - 23.0 °F 52% 30.43 in 10.0 mi Calm Calm - N/A   Clear
9:35 AM 42.8 °F - 23.0 °F 46% 30.44 in 10.0 mi Calm Calm - N/A   Clear
9:55 AM 44.6 °F - 23.0 °F 43% 30.44 in 10.0 mi Calm Calm - N/A   Clear
10:15 AM 46.4 °F 45.2 °F 23.0 °F 40% 30.46 in 10.0 mi WSW 3.5 mph - N/A   Clear
10:35 AM 50.0 °F - 23.0 °F 35% 30.46 in 10.0 mi WSW 3.5 mph - N/A   Clear
10:55 AM 51.8 °F - 23.0 °F 33% 30.45 in 10.0 mi Calm Calm - N/A   Clear
11:15 AM 53.6 °F - 21.2 °F 28% 30.45 in 10.0 mi SW 4.6 mph - N/A   Clear
11:35 AM 55.4 °F - 23.0 °F 29% 30.45 in 10.0 mi Calm Calm - N/A   Clear
11:55 AM 55.4 °F - 19.4 °F 25% 30.43 in 10.0 mi Calm Calm - N/A   Clear
12:15 PM 57.2 °F - 14.0 °F 18% 30.42 in 10.0 mi Calm Calm - N/A   Clear
12:35 PM 59.0 °F - 14.0 °F 17% 30.40 in 10.0 mi WSW 5.8 mph - N/A   Clear
1:15 PM 59.0 °F - 12.2 °F 16% 30.38 in 10.0 mi WNW 4.6 mph - N/A   Clear
1:35 PM 59.0 °F - 12.2 °F 16% 30.36 in 10.0 mi Calm Calm - N/A   Clear
1:55 PM 59.0 °F - 12.2 °F 16% 30.36 in 10.0 mi SW 4.6 mph - N/A   Clear
2:15 PM 60.8 °F - 14.0 °F 16% 30.36 in 10.0 mi West 3.5 mph - N/A   Clear
2:35 PM 60.8 °F - 15.8 °F 17% 30.36 in 10.0 mi WSW 5.8 mph - N/A   Clear
3:15 PM 60.8 °F - 12.2 °F 15% 30.35 in 10.0 mi WSW 4.6 mph - N/A   Clear
3:35 PM 60.8 °F - 14.0 °F 16% 30.35 in 10.0 mi West 3.5 mph - N/A   Clear
3:55 PM 60.8 °F - 14.0 °F 16% 30.35 in 10.0 mi SSW 4.6 mph - N/A   Clear
4:15 PM 60.8 °F - 14.0 °F 16% 30.35 in 10.0 mi SW 6.9 mph - N/A   Clear
4:35 PM 60.8 °F - 14.0 °F 16% 30.35 in 10.0 mi SW 6.9 mph - N/A   Clear
4:55 PM 59.0 °F - 15.8 °F 19% 30.35 in 10.0 mi SSW 3.5 mph - N/A   Clear
5:15 PM 59.0 °F - 15.8 °F 19% 30.35 in 10.0 mi SSW 3.5 mph - N/A   Clear
5:35 PM 57.2 °F - 17.6 °F 21% 30.35 in 10.0 mi Calm Calm - N/A   Clear
5:55 PM 51.8 °F - 21.2 °F 30% 30.35 in 10.0 mi Calm Calm - N/A   Clear
6:15 PM 48.2 °F - 23.0 °F 37% 30.35 in 10.0 mi Calm Calm - N/A   Clear
6:35 PM 44.6 °F - 26.6 °F 49% 30.35 in 10.0 mi Calm Calm - N/A   Clear
6:55 PM 44.6 °F - 26.6 °F 49% 30.36 in 10.0 mi Calm Calm - N/A   Clear
7:35 PM 42.8 °F - 28.4 °F 57% 30.37 in 10.0 mi Calm Calm - N/A   Clear
7:55 PM 42.8 °F - 30.2 °F 61% 30.37 in 10.0 mi Calm Calm - N/A   Clear
8:15 PM 41.0 °F - 30.2 °F 65% 30.37 in 10.0 mi Calm Calm - N/A   Clear
8:35 PM 42.8 °F - 28.4 °F 57% 30.37 in 10.0 mi Calm Calm - N/A   Clear
8:55 PM 42.8 °F - 28.4 °F 57% 30.38 in 10.0 mi Calm Calm - N/A   Clear
9:15 PM 41.0 °F - 30.2 °F 65% 30.38 in 10.0 mi Calm Calm - N/A   Clear
9:35 PM 41.0 °F - 28.4 °F 61% 30.38 in 10.0 mi Calm Calm - N/A   Clear
9:55 PM 41.0 °F - 28.4 °F 61% 30.38 in 10.0 mi Calm Calm - N/A   Clear
10:15 PM 41.0 °F - 28.4 °F 61% 30.37 in 10.0 mi Calm Calm - N/A   Clear
10:35 PM 48.2 °F - 21.2 °F 34% 30.37 in 10.0 mi SSW 4.6 mph - N/A   Clear
10:55 PM 46.4 °F 44.3 °F 21.2 °F 37% 30.38 in 10.0 mi SSW 4.6 mph - N/A   Clear
11:15 PM 46.4 °F 45.2 °F 21.2 °F 37% 30.39 in 10.0 mi SW 3.5 mph - N/A   Clear
11:55 PM 46.4 °F 45.2 °F 23.0 °F 40% 30.39 in 10.0 mi SSW 3.5 mph - N/A   Clear